sat.trackr.live / text

‹ back to catalog

STARLINK-5577

NORAD 55751 · 2023-028L

PAYLOAD ACTIVE UNKNOWN

§ Identity

Operator
Country
US
Launch date
2023-03-03
Launch site
AFWTR
Launch vehicle
Mass (kg)
RCS (m²)

Purposes: comms

External: N2YO · Heavens-Above · Gunter

§ Orbital elements

Epoch: 2026-05-25T04:02:08.596320Z

Period
96.11 min
Inclination
70.0008°
Eccentricity
0.0002900
Mean motion
14.98331427 rev/d
Perigee alt
570.0 km
Apogee alt
574.1 km
Semi-major
6,950.2 km
B*
3.0311e-5
RAAN
51.7191°
Arg perigee
269.2614°
Mean anomaly
90.8212°
Rev number
17,749

§ Raw data

STARLINK-55771 55751U 23028L   26145.16815505  .00000269  00000+0  30311-4 0  99952 55751  70.0008  51.7191 0002900 269.2614  90.8212 14.98331427177497

JSON: /api/v1/satellites/55751 · /tle

For live sub-satellite position, see the globe view (requires WebGL).

§ Visibility from observer

Set your observer location to see the next 7 days of passes ≥ 10°. The values pass through the URL so the page stays shareable.

No JS? Fill the form by hand. The geolocation button needs JavaScript.